Tracking 24120 objects as of 5-Dec-2021
HD Live streaming from Space Station
objects crossing your sky now

BLOCK DM-SL R/B

Track BLOCK DM-SL R/B now!


NORAD ID: 39774
Int'l Code: 2014-030B
Perigee: 377.1 km
Apogee: 35,484.1 km
Inclination: 0.3 °
Period: 628.4 minutes
Semi major axis: 24301 km
RCS: Unknown
Launch date: May 26, 2014
Source: Sea Launch (SEAL)
Launch site: SEA LAUNCH (SEAL)

Note: This is a ROCKET BODY
aabbcc
Your satellite tracking list
Your tracking list is empty




NASA's NSSDC Master Catalog

Two Line Element Set (TLE):
1 39774U 14030B   21338.79562028  .00000194  00000-0  53698-3 0  9992
2 39774   0.3355  52.9323 7223198 193.1365  26.2908  2.29166218 62891
Source of the keplerian elements: AFSPC